And he said unto them, He that hath ears to hear, let him hear.
Mark 4:9 KJ
pause

Enter Zip Code:

Current conditions for: Simi Valley, CA, US - Location: 34.26  -118.75 on Tue, 20 Mar 2007 9:51 pm PDT:
cloud or sun
cloud or sun
cloud or sun

Currently:
Cloudy
Visibility: 1,609.0 miles
Temp: 53° F     Humidity: 86%
Wind: Calm
Feels like: 53 ° F
Pressure: 30.01 in and rising
Sunrise: 6:59 am  Sunset: 7:06 pm
Forecast for Tue:
Showers Early
64° F / 47° F
Forecast for Wed:
Partly Cloudy
67° F / 47° F



Data courtesy of Yahoo! Weather

Enter 4 Letter Airport ID:

Current Observation for KDFW :

2020/02/19 09:53
KDFW 190953Z 01009KT 10SM SCT070 BKN250 06/02 A3028 RMK AO2 SLP251 T00610022 $

Forecast for KDFW :

2020/02/19 09:06
TAF 
      AMD KDFW 190904Z 1909/2012 04010KT P6SM OVC050 
      TEMPO 1915/1918 BKN025 
     FM191800 06007KT P6SM VCSH OVC025 
     FM192100 06007KT P6SM VCSH OVC015 
     FM200200 05006KT 5SM SHRA BR OVC007
GOES Pacific Coast Color Satellite View
GOES Pacific Coast Color Satellite View
GOES Hurricane Color Satellite View
GOES Hurricane Color Satellite View
  Movies and Other Links
(May take a while to load)
East Coast Movie
West Coast Movie
GOES East Full Disk
GOES West Full Disk
S Plains Radar View
Southern Plains Radar View
N Texas Radar View
Dallas Ft Worth Area View
Southern Rockies Radar View
North Texas - Oklahoma Radar View
CONUS Visible
CONUS Visible
CONUS IR
CONUS IR
CONUS Water Vapor
CONUS Water Vapor